Regional Weather Roundup
Issued by NWS

Home | Current Version | Previous Version | Text Only | Print | Product List | Glossary On
Versions: 1 2 3 4 5 6 7 8 9 10 11 12 13 14 15 16 17 18 19 20 21 22 23 24 25 26 27 28 29 30 31 32 33 34 35 36 37 38 39 40 41 42 43 44 45 46 47 48 49 50
000
ASUS43 KDTX 240901
RWRMI
MICHIGAN HOURLY REGIONAL WEATHER ROUNDUP
NATIONAL WEATHER SERVICE DETROIT/PONTIAC MI
500 AM EDT WED MAY 24 2017

NOTE: "FAIR" INDICATES FEW OR NO CLOUDS BELOW 12,000 FEET WITH NO
SIGNIFICANT WEATHER AND/OR OBSTRUCTION TO VISIBILITY.

MIZ047>049-052>055-059>063-066>070-074>076-081>083-241000-
SOUTHEAST LOWER MICHIGAN

CITY           SKY/WX    TMP DP  RH WIND       PRES   REMARKS
ADRIAN         PTCLDY    55  52  89 E8        29.60F
ALMA           CLOUDY    55  54  97 NE3       29.66F
ANN ARBOR      MOCLDY    56  53  90 NE7       29.60F
BAD AXE        CLOUDY    52  51  94 E3        29.69S
CARO           PTCLDY    54  53  95 NE3       29.66F
DETROIT CITY   PTCLDY    56  50  80 NE8       29.63F
DETROIT        CLOUDY    59  51  75 NE8       29.62F
FLINT          PTCLDY    54  52  93 NE6       29.64F
GROSSE ILE     MOCLDY    57  50  79 NE9       29.61F
HILLSDALE      MOCLDY    54  50  87 E7        29.59F
HOWELL         PTCLDY    54  50  86 NE6       29.62F

CITY           SKY/WX    TMP DP  RH WIND       PRES   REMARKS
JACKSON        CLOUDY    52  51  97 NE6       29.61F
LAMBERTVILLE   PTCLDY    57  51  81 CALM      29.59F
LANSING        CLOUDY    55  50  83 NE10      29.63F
LAPEER         FAIR      55  51  89 E6        29.66S
MASON          CLOUDY    54  52  95 NE6       29.62F
MONROE         MOCLDY    58  50  74 NE5       29.60S
MT. CLEMENS    CLOUDY    55  52  89 N3        29.62F
PONTIAC        CLOUDY    56  50  80 NE8       29.62F
PORT HOPE        N/A     51  50  96 E3        29.68F
PORT HURON     PTCLDY    52  48  87 NE5       29.65F
TRI CITIES     MOCLDY    55  55 100 NE8       29.68S FOG
MIDLAND        CLOUDY    55  55  97 E5        29.67S
TROY           CLOUDY    57  50  77 NE8       29.65F
SAGINAW HB     PTCLDY    54  50  87 NE5       29.66F
$$
MIZ043>046-050>051-056>058-064>065-071>073-077>080-241000-
SOUTHWEST LOWER MICHIGAN

CITY           SKY/WX    TMP DP  RH WIND       PRES   REMARKS
BATTLE CREEK   CLOUDY    56  53  90 NE10      29.61F
BENTON HARBOR  CLOUDY    57  52  83 NE6       29.58F
BIG RAPIDS     CLOUDY    54  52  94 NE3       29.66F
COLDWATER      MOCLDY    54  53  99 NE6       29.59F
FREMONT        CLOUDY    55  53  94 CALM      29.65S
HOLLAND        CLOUDY    57  53  86 VRB6      29.62F
GRAND RAPIDS   CLOUDY    56  55  97 NE8       29.63F
IONIA          MOCLDY    55  54  94 NE6       29.63F
KALAMAZOO      CLOUDY    57  52  83 NE6       29.60F
LUDINGTON      RAIN      52  52 100 CALM      29.66S
MARSHALL       MOCLDY    55  54  97 NE3       29.61S
MOUNT PLEASANT CLOUDY    54  53  97 N3        29.66F FOG
MUSKEGON       CLOUDY    56  54  93 NE8       29.64F
SOUTH HAVEN    CLOUDY    56  55  95 NE7       29.59F
$$
MIZ016>042-241000-
NORTHERN LOWER MICHIGAN

CITY           SKY/WX    TMP DP  RH WIND       PRES   REMARKS
ALPENA         FOG       48  48 100 CALM      29.74S VSB 1/4
BEAVER ISLAND  RAIN      48  46  93 E3        29.73S
BELLAIRE       LGT RAIN  51  49  92 CALM      29.71S
CADILLAC       LGT RAIN  52  51  97 E3        29.69S
CHARLEVOIX     CLOUDY    49  49  99 NE3       29.74F
GAYLORD        FOG       52  49  89 CALM      29.71S VSB 1/4
GRAYLING       CLOUDY    52  52  99 NE5       29.70F VSB 1
HARBOR SPRINGS RAIN      49  49 100 E8        29.72F
HOUGHTON LAKE  CLOUDY    53  52  96 E3        29.70F FOG
MANISTEE       LGT RAIN  53  52  96 E8        29.67S
OSCODA         CLOUDY    51  50  98 NW6       29.71S FOG
PELLSTON       LGT RAIN  49  46  90 CALM      29.73F
ROGERS CITY    CLOUDY    49  47  96 SE3       29.74F FOG
TRAVERSE CITY  CLOUDY    50  49  96 CALM      29.69F
$$
MIZ007>008-015-241000-
EASTERN UPPER MICHIGAN

CITY           SKY/WX    TMP DP  RH WIND       PRES   REMARKS
KINROSS        LGT RAIN  50  47  89 NE9       29.74F
MACKINAC ISLAN LGT RAIN  49  49 100 E8        29.73S
NEWBERRY       CLOUDY    46  45  97 N3        29.74S
S. S. MARIE    CLOUDY    52  45  77 E7        29.74F
MUNISING         N/A     42  41  96 NW8       29.76F
$$
MIZ004>006-011>014-085-241000-
CENTRAL UPPER MICHIGAN

CITY           SKY/WX    TMP DP  RH WIND       PRES   REMARKS
MANISTIQUE     CLOUDY    47  44  90 N6        29.72F
ESCANABA       LGT RAIN  46  45  96 N7        29.73F
MENOMINEE      LGT RAIN  47  46  97 NE7       29.72F FOG
SAWYER-GWINN   LGT RAIN  42  41  96 N12       29.77S
$$
MIZ001>003-009>011-084-241000-
WESTERN UPPER MICHIGAN

CITY           SKY/WX    TMP DP  RH WIND       PRES   REMARKS
IRON MOUNTAIN  CLOUDY    47  43  86 N6        29.73F
HOUGHTON       CLOUDY    47  41  80 E6        29.80F
COPPER HARBOR    N/A     43  41  93 N5        29.82S
IRONWOOD       CLOUDY    42  41  96 CALM      29.81F
$$

ABBREVIATIONS USED IN REMARKS
   TC - TEMPERATURE IN CELSIUS
  WCI - WIND CHILL INDEX
   HX - HEAT INDEX
  VSB - VISIBILITY





USA.gov is the U.S. government's official web portal to all federal, state and local government web resources and services.